Location: Unnamed
(47.6264°N, 122.3366°W)
Time: 03:53:08
(UTC-07:00)

Tiangong - Visible Passes

Search period start: 28 May 2023 00:00
Search period end: 07 June 2023 00:00
Orbit: 387 x 392 km, 41.5° (Epoch: 28 May)

Date Brightness Start Highest point End Pass type
(mag) Time Alt. Az. Time Alt. Az. Time Alt. Az.
02 Jun 0.5 04:06:10 10° SSE 04:07:02 11° SSE 04:07:55 10° SE visible
04 Jun -0.1 04:02:08 13° SSW 04:04:03 19° SSE 04:06:35 10° ESE visible
05 Jun 0.1 03:16:02 16° SSE 03:16:08 16° SSE 03:18:19 10° ESE visible
06 Jun 0.7 02:31:09 10° SE 02:31:09 10° SE 02:31:09 10° SE visible
06 Jun -0.7 04:04:12 14° SW 04:06:37 27° S 04:09:42 10° ESE visible
